Location: N�rnberg
(49.4471°N, 11.0632°E)
Time: 21:23:40
(UTC+02:00)

VELOX 1 - Pass Details

Date: 21 April 2026
Orbit: 569 x 580 km, 98.3° (Epoch: 13 May)

Event Time Altitude Azimuth Distance (km) Brightness Sun altitude
Rises 00:52:04 0° 12° (NNE) 2,785 ? -28.6°
Reaches altitude 10° 00:54:13 10° 11° (N) 1,883 ? -28.6°
Enters shadow 00:56:51 39° 2° (N) 870 ? -28.6°
